DW5686 Weather Reports


Display with metric or nautical units.
time (UTC)temp
F
wind
direction
speed
MPH
gust
MPH
rain 1hr
in
rain 24hr
in
rain mn
in
humidity
%
barometer
mb
20260506212003 78 208 7.0 17.0 0.00 0.00 0.00 60 1011.9
20260506211503 78 216 4.0 16.0 0.00 0.00 0.00 61 1011.8
20260506211003 78 228 6.0 16.0 0.00 0.00 0.00 61 1011.9
20260506210525 78 236 3.0 14.0 0.00 0.00 0.00 61 1011.9
20260506210003 78 229 5.0 12.0 0.00 0.00 0.00 62 1011.8
20260506205503 77 226 5.0 16.0 0.00 0.00 0.00 63 1011.8
20260506205003 77 226 4.0 16.0 0.00 0.00 0.00 62 1011.9
20260506204503 77 209 8.0 19.0 0.00 0.00 0.00 62 1011.8
20260506204002 76 227 6.0 19.0 0.00 0.00 0.00 64 1011.9
20260506203503 76 208 6.0 17.0 0.00 0.00 0.00 64 1012.0
20260506203004 76 203 7.0 19.0 0.00 0.00 0.00 63 1011.9
20260506202502 76 217 8.0 19.0 0.00 0.00 0.00 63 1012.0
20260506202002 78 218 9.0 19.0 0.00 0.00 0.00 62 1012.2
20260506201502 78 231 3.0 10.0 0.00 0.00 0.00 67 1012.1
20260506201003 77 229 5.0 13.0 0.00 0.00 0.00 64 1012.2
20260506200503 76 180 4.0 13.0 0.00 0.00 0.00 69 1012.1
20260506200004 74 239 3.0 11.0 0.00 0.00 0.00 72 1012.2
20260506195524 73 239 6.0 11.0 0.00 0.00 0.00 72 1012.3
20260506195004 73 235 3.0 11.0 0.00 0.00 0.00 72 1012.4
20260506194502 73 195 3.0 14.0 0.00 0.00 0.00 72 1012.6
20260506194002 73 225 6.0 17.0 0.00 0.00 0.00 72 1012.4
20260506193503 73 226 5.0 17.0 0.00 0.00 0.00 74 1012.4
20260506193002 72 235 4.0 15.0 0.00 0.00 0.00 75 1012.3
20260506192523 72 195 4.0 15.0 0.00 0.00 0.00 74 1012.4
20260506192003 72 221 6.0 11.0 0.00 0.00 0.00 75 1012.4
20260506191503 72 215 2.0 10.0 0.00 0.00 0.00 78 1012.5
20260506191003 71 166 6.0 12.0 0.00 0.00 0.00 78 1012.6
20260506190503 71 218 3.0 17.0 0.00 0.00 0.00 78 1012.6
20260506190004 71 155 3.0 17.0 0.00 0.00 0.00 78 1012.6
20260506185503 71 164 6.0 12.0 0.00 0.00 0.00 78 1012.5
20260506185003 70 170 6.0 10.0 0.00 0.00 0.00 79 1012.6
20260506184504 70 169 5.0 9.0 0.00 0.00 0.00 82 1012.6
20260506184025 69 152 4.0 8.0 0.00 0.00 0.00 86 1012.7
20260506183503 68 149 3.0 7.0 0.00 0.00 0.00 87 1013.0
20260506183004 67 160 4.0 12.0 0.00 0.00 0.00 86 1012.9
20260506182523 67 154 6.0 12.0 0.00 0.00 0.00 86 1012.8
20260506182002 67 156 6.0 8.0 0.00 0.00 0.00 87 1013.0
20260506181502 67 155 2.0 8.0 0.00 0.00 0.00 88 1012.9
20260506181024 66 173 4.0 8.0 0.00 0.00 0.00 88 1013.2
20260506180503 66 170 4.0 6.0 0.00 0.00 0.00 88 1013.3
20260506180025 65 337 1.0 6.0 0.00 0.00 0.00 87 1013.9
20260506175503 65 1 1.0 10.0 0.00 0.00 0.00 87 1014.1
20260506175004 65 13 2.0 10.0 0.00 0.00 0.00 86 1014.7
20260506174503 65 344 1.0 5.0 0.00 0.00 0.00 84 1015.4
20260506174002 66 23 1.0 2.0 0.00 0.00 0.00 82 1015.3
20260506173524 66 205 0.0 2.0 0.00 0.00 0.00 83 1015.0
20260506173003 66 0 0.0 1.0 0.00 0.00 0.00 81 1014.7
20260506172502 66 205 0.0 3.0 0.00 0.00 0.00 83 1014.9
20260506172003 66 0 0.0 3.0 0.00 0.00 0.00 82 1014.8
20260506171504 65 220 1.0 4.0 0.00 0.00 0.00 82 1014.7
20260506171003 65 345 1.0 4.0 0.00 0.00 0.00 81 1015.2
20260506170504 65 52 0.0 5.0 0.00 0.00 0.00 78 1015.3
20260506170004 65 62 1.0 7.0 0.00 0.00 0.00 76 1015.4
20260506165503 66 193 1.0 10.0 0.00 0.00 0.00 76 1015.2
20260506165004 66 224 3.0 17.0 0.00 0.00 0.00 75 1014.9
20260506164503 67 230 2.0 20.0 0.00 0.00 0.00 70 1014.6
20260506164004 70 231 8.0 20.0 0.00 0.00 0.00 58 1014.7
20260506163524 73 236 2.0 13.0 0.00 0.00 0.00 51 1014.5
20260506163004 74 223 4.0 13.0 0.00 0.00 0.00 50 1014.5
20260506162523 74 189 3.0 16.0 0.00 0.00 0.00 51 1014.2
20260506162003 74 219 6.0 16.0 0.00 0.00 0.00 50 1014.1
20260506161502 74 196 4.0 18.0 0.00 0.00 0.00 50 1014.2
20260506161004 74 230 5.0 18.0 0.00 0.00 0.00 51 1014.2
20260506160503 74 219 6.0 17.0 0.00 0.00 0.00 51 1014.1
20260506160003 74 198 5.0 17.0 0.00 0.00 0.00 52 1014.1
20260506155503 74 229 7.0 14.0 0.00 0.00 0.00 50 1014.0
20260506155025 74 221 2.0 18.0 0.00 0.00 0.00 53 1014.0
20260506154504 74 183 7.0 18.0 0.00 0.00 0.00 55 1014.0
20260506154004 74 212 7.0 17.0 0.00 0.00 0.00 53 1014.0
20260506153504 74 191 7.0 17.0 0.00 0.00 0.00 55 1014.0
20260506153003 74 203 6.0 16.0 0.00 0.00 0.00 57 1013.8
20260506152503 73 165 8.0 16.0 0.00 0.00 0.00 58 1013.8
20260506152024 72 212 7.0 15.0 0.00 0.00 0.00 59 1013.8
20260506151504 72 190 9.0 17.0 0.00 0.00 0.00 59 1013.8
20260506151003 72 184 9.0 17.0 0.00 0.00 0.00 60 1013.7
20260506150504 72 179 5.0 13.0 0.00 0.00 0.00 61 1013.8
20260506150004 72 200 5.0 13.0 0.00 0.00 0.00 62 1013.8
20260506145504 72 222 5.0 14.0 0.00 0.00 0.00 61 1013.8
20260506145004 71 224 7.0 14.0 0.00 0.00 0.00 61 1013.8
20260506144503 71 251 3.0 11.0 0.00 0.00 0.00 63 1013.7
20260506144024 71 166 3.0 17.0 0.00 0.00 0.00 62 1013.5
20260506143503 71 231 6.0 17.0 0.00 0.00 0.00 62 1013.5
20260506143003 71 197 4.0 17.0 0.00 0.00 0.00 62 1013.6
20260506142503 71 169 4.0 19.0 0.00 0.00 0.00 63 1013.7
20260506142004 71 198 6.0 19.0 0.00 0.00 0.00 64 1013.7
20260506141503 70 224 7.0 16.0 0.00 0.00 0.00 63 1013.7
20260506141003 69 194 6.0 17.0 0.00 0.00 0.00 67 1013.6
20260506140503 68 162 9.0 17.0 0.00 0.00 0.00 68 1013.7
20260506140003 67 191 2.0 13.0 0.00 0.00 0.00 71 1013.6
20260506135504 66 181 2.0 13.0 0.00 0.00 0.00 70 1013.8
20260506135004 66 164 6.0 13.0 0.00 0.00 0.00 70 1013.7
20260506134504 66 183 3.0 12.0 0.00 0.00 0.00 70 1013.7
20260506134003 66 194 3.0 14.0 0.00 0.00 0.00 70 1013.8
20260506133503 66 187 5.0 14.0 0.00 0.00 0.00 70 1013.8
20260506133003 65 185 4.0 12.0 0.00 0.00 0.00 70 1013.9
20260506132525 66 200 4.0 14.0 0.00 0.00 0.00 70 1013.7
20260506132004 66 170 6.0 14.0 0.00 0.00 0.00 69 1013.6
20260506131525 66 175 5.0 11.0 0.00 0.00 0.00 70 1013.5
20260506131003 65 171 5.0 11.0 0.00 0.00 0.00 70 1013.5
20260506130524 65 182 5.0 9.0 0.00 0.00 0.00 71 1013.4
20260506130003 64 162 5.0 11.0 0.00 0.00 0.00 72 1013.4
20260506125504 64 176 5.0 11.0 0.00 0.00 0.00 71 1013.7
20260506125003 64 173 5.0 12.0 0.00 0.00 0.00 71 1013.7
20260506124503 64 165 7.0 12.0 0.00 0.00 0.00 71 1013.8
20260506124003 64 169 5.0 10.0 0.00 0.00 0.00 71 1014.2
20260506123503 64 179 3.0 10.0 0.00 0.00 0.00 71 1014.1
20260506123003 64 165 5.0 10.0 0.00 0.00 0.00 71 1014.1
20260506122503 63 161 4.0 8.0 0.00 0.00 0.00 72 1014.3
20260506122003 63 224 3.0 9.0 0.00 0.00 0.00 71 1014.3
20260506121503 63 179 3.0 9.0 0.00 0.00 0.00 72 1014.3
20260506121004 63 185 4.0 7.0 0.00 0.00 0.00 72 1014.4
20260506120525 62 214 3.0 7.0 0.00 0.00 0.00 72 1014.4
20260506120003 62 200 2.0 7.0 0.00 0.00 0.00 74 1014.5
20260506115525 62 214 1.0 7.0 0.00 0.00 0.00 74 1014.5
20260506115003 62 243 2.0 6.0 0.00 0.00 0.00 74 1014.6
20260506114503 62 214 2.0 7.0 0.00 0.00 0.00 74 1014.1
20260506114004 62 162 3.0 7.0 0.00 0.00 0.00 75 1014.0
20260506113503 61 172 3.0 7.0 0.00 0.00 0.00 75 1013.9
20260506113003 61 145 2.0 8.0 0.00 0.00 0.00 75 1013.8
20260506112503 61 166 2.0 8.0 0.00 0.00 0.00 75 1013.5
20260506112024 61 173 4.0 7.0 0.00 0.00 0.00 76 1013.6
20260506111504 61 221 1.0 7.0 0.00 0.00 0.00 75 1013.5
20260506111004 61 207 2.0 8.0 0.00 0.00 0.00 75 1013.3
20260506110503 61 151 3.0 9.0 0.00 0.00 0.00 75 1013.4
20260506110004 61 175 4.0 11.0 0.00 0.00 0.00 75 1013.1
20260506105503 61 166 5.0 11.0 0.00 0.00 0.00 75 1013.1
20260506105004 61 171 4.0 11.0 0.00 0.00 0.00 75 1013.1
20260506104503 61 176 4.0 9.0 0.00 0.00 0.00 75 1013.0
20260506104024 61 163 4.0 12.0 0.00 0.00 0.00 75 1013.1
20260506103504 61 165 4.0 12.0 0.00 0.00 0.00 75 1013.1
20260506103004 61 160 4.0 11.0 0.00 0.00 0.00 74 1013.0
20260506102525 61 179 5.0 11.0 0.00 0.00 0.00 74 1012.8
20260506102003 61 172 7.0 14.0 0.00 0.00 0.00 74 1012.8
20260506101504 61 167 3.0 14.0 0.00 0.00 0.00 74 1012.7
20260506101004 61 170 5.0 13.0 0.00 0.00 0.00 74 1012.6
20260506100503 61 172 6.0 13.0 0.00 0.00 0.00 74 1012.7
20260506100003 61 173 6.0 13.0 0.00 0.00 0.00 74 1013.0
20260506095504 61 173 5.0 13.0 0.00 0.00 0.00 74 1012.9
20260506095003 61 173 4.0 12.0 0.00 0.00 0.00 75 1013.0
20260506094503 61 165 6.0 15.0 0.00 0.00 0.00 74 1013.0
20260506094003 61 175 6.0 15.0 0.00 0.00 0.00 75 1012.8
20260506093503 61 175 7.0 13.0 0.00 0.00 0.00 75 1013.0
20260506093003 61 164 4.0 10.0 0.00 0.00 0.00 75 1013.2
20260506092503 61 173 5.0 10.0 0.00 0.00 0.00 75 1013.2
20260506092003 61 182 3.0 12.0 0.00 0.00 0.00 75 1013.2
20260506091503 61 161 5.0 12.0 0.00 0.00 0.00 75 1013.4
20260506091003 61 166 5.0 12.0 0.00 0.00 0.00 75 1013.5
20260506090504 61 164 3.0 10.0 0.00 0.00 0.00 75 1013.4
20260506090003 61 168 5.0 12.0 0.00 0.00 0.00 74 1013.4
20260506085503 62 167 5.0 12.0 0.00 0.00 0.00 74 1013.5
20260506085003 61 170 5.0 13.0 0.00 0.00 0.00 74 1013.6
20260506084504 62 167 3.0 13.0 0.00 0.00 0.00 74 1013.5
20260506084003 62 162 5.0 13.0 0.00 0.00 0.00 72 1013.5
20260506083504 62 163 5.0 10.0 0.00 0.00 0.00 72 1013.6
20260506083003 62 164 4.0 14.0 0.00 0.00 0.00 72 1013.8
20260506082503 62 166 6.0 14.0 0.00 0.00 0.00 72 1013.9
20260506082003 62 175 7.0 12.0 0.00 0.00 0.00 72 1013.9
20260506081504 62 163 2.0 11.0 0.00 0.00 0.00 72 1014.0
20260506081003 62 163 4.0 14.0 0.00 0.00 0.00 72 1014.0
20260506080503 62 178 5.0 14.0 0.00 0.00 0.00 71 1014.0
20260506073525 63 179 7.0 13.0 0.00 0.00 0.00 70 1013.9
20260506073024 63 191 3.0 13.0 0.00 0.00 0.00 70 1014.0
20260506072503 63 162 7.0 16.0 0.00 0.00 0.00 70 1013.7
20260506072023 63 179 6.0 17.0 0.00 0.00 0.00 70 1013.8
20260506071523 63 183 8.0 17.0 0.00 0.00 0.00 69 1013.9
20260506071002 63 177 6.0 14.0 0.00 0.00 0.00 69 1013.7
20260506070502 64 209 5.0 14.0 0.00 0.00 0.00 69 1013.7
20260506062502 64 163 6.0 18.0 0.00 0.00 0.00 68 1013.7
20260506062003 64 171 8.0 18.0 0.00 0.00 0.00 68 1013.8
20260506061524 64 175 7.0 12.0 0.00 0.00 0.00 67 1014.1
20260506061002 64 162 5.0 21.0 0.00 0.00 0.00 67 1014.3
20260506060502 65 167 7.0 21.0 0.00 0.00 0.00 67 1014.4
20260506051024 66 170 8.0 21.0 0.00 0.00 0.00 61 1014.1
20260506050502 66 165 7.0 20.0 0.00 0.00 0.00 61 1014.2
20260506045002 66 168 9.0 17.0 0.00 0.00 0.00 61 1014.3
20260506044502 66 163 8.0 14.0 0.00 0.00 0.00 61 1014.3
20260506044003 66 165 9.0 16.0 0.00 0.00 0.00 61 1014.2
20260506043502 66 169 8.0 16.0 0.00 0.00 0.00 61 1014.3
20260506043002 67 167 5.0 20.0 0.00 0.00 0.00 60 1014.3
20260506042502 67 166 7.0 20.0 0.00 0.00 0.00 60 1014.2
20260506042002 67 175 9.0 17.0 0.00 0.00 0.00 59 1014.2
20260506041524 67 171 7.0 17.0 0.00 0.00 0.00 59 1014.1
20260506041024 67 166 6.0 17.0 0.00 0.00 0.00 59 1014.1
20260506040503 67 167 9.0 17.0 0.00 0.00 0.00 59 1014.1
20260506040002 67 171 6.0 22.0 0.00 0.00 0.00 58 1013.9
20260506035523 68 170 9.0 27.0 0.00 0.00 0.00 58 1014.0
20260506035024 67 166 11.0 27.0 0.00 0.00 0.00 58 1014.1
20260506034502 67 168 9.0 22.0 0.00 0.00 0.00 58 1014.0
20260506034023 67 175 8.0 22.0 0.00 0.00 0.00 57 1014.1
20260506033503 67 163 8.0 14.0 0.00 0.00 0.00 57 1014.1
20260506033002 67 160 8.0 14.0 0.00 0.00 0.00 56 1014.0
20260506032502 67 159 8.0 14.0 0.00 0.00 0.00 56 1014.0
20260506032023 67 159 7.0 14.0 0.00 0.00 0.00 55 1014.0
20260506031503 67 163 9.0 14.0 0.00 0.00 0.00 53 1014.0
20260506031003 67 160 6.0 12.0 0.00 0.00 0.00 53 1013.8
20260506030524 66 169 4.0 11.0 0.00 0.00 0.00 53 1013.8
20260506030003 66 171 3.0 9.0 0.00 0.00 0.00 55 1013.7
20260506025503 66 162 3.0 6.0 0.00 0.00 0.00 55 1013.8
20260506025003 65 173 2.0 5.0 0.00 0.00 0.00 56 1013.8
20260506024502 65 148 2.0 5.0 0.00 0.00 0.00 57 1013.9
20260506024024 65 146 2.0 5.0 0.00 0.00 0.00 58 1013.8
20260506023502 64 146 1.0 5.0 0.00 0.00 0.00 57 1013.9
20260506023003 65 156 3.0 5.0 0.00 0.00 0.00 56 1014.0
20260506022523 65 158 2.0 4.0 0.00 0.00 0.00 56 1014.0
20260506022002 65 158 0.0 2.0 0.00 0.00 0.00 55 1014.0
20260506021503 65 158 1.0 2.0 0.00 0.00 0.00 55 1014.0
20260506021002 65 158 0.0 3.0 0.00 0.00 0.00 55 1013.8
20260506020523 65 158 1.0 3.0 0.00 0.00 0.00 55 1013.9
20260506020002 65 167 1.0 3.0 0.00 0.00 0.00 55 1014.0
20260506015503 66 167 1.0 3.0 0.00 0.00 0.00 53 1014.0
20260506015003 66 167 1.0 2.0 0.00 0.00 0.00 52 1014.0
20260506014502 66 0 0.0 4.0 0.00 0.00 0.00 52 1014.0
20260506014002 66 167 1.0 4.0 0.00 0.00 0.00 52 1014.0
20260506013503 66 146 1.0 3.0 0.00 0.00 0.00 51 1013.8
20260506013002 67 146 2.0 6.0 0.00 0.00 0.00 51 1013.7
20260506012503 67 148 2.0 6.0 0.00 0.00 0.00 50 1013.6
20260506012023 67 159 4.0 6.0 0.00 0.00 0.00 51 1013.6
20260506011523 67 156 2.0 3.0 0.00 0.00 0.00 51 1013.6
20260506011002 67 156 2.0 3.0 0.00 0.00 0.00 50 1013.6
20260506010502 67 156 1.0 2.0 0.00 0.00 0.00 49 1013.6
20260506010003 68 156 0.0 2.0 0.00 0.00 0.00 48 1013.6
20260506005503 68 156 0.0 2.0 0.00 0.00 0.00 47 1013.6
20260506005002 69 156 0.0 3.0 0.00 0.00 0.00 47 1013.5
20260506004504 69 156 0.0 4.0 0.00 0.00 0.00 45 1013.4
20260506004003 70 157 1.0 4.0 0.00 0.00 0.00 45 1013.3
20260506003502 71 155 0.0 4.0 0.00 0.00 0.00 44 1013.3
20260506003002 72 149 2.0 6.0 0.00 0.00 0.00 42 1013.2
20260506002502 73 161 2.0 9.0 0.00 0.00 0.00 40 1013.2
20260506002003 73 168 3.0 9.0 0.00 0.00 0.00 39 1013.3
20260506001503 74 153 2.0 9.0 0.00 0.00 0.00 39 1013.2
20260506001003 74 146 4.0 10.0 0.00 0.00 0.00 38 1013.1
20260506000502 74 160 4.0 10.0 0.00 0.00 0.00 38 1013.1
20260506000003 75 161 3.0 9.0 0.00 0.00 0.00 38 1013.1
20260505235502 75 169 5.0 10.0 0.00 0.00 0.00 38 1013.0
20260505235002 75 173 4.0 11.0 0.00 0.00 0.00 37 1013.1
20260505234504 75 204 3.0 12.0 0.00 0.00 0.00 37 1012.9
20260505234002 76 177 5.0 12.0 0.00 0.00 0.00 36 1012.8
20260505233504 76 181 6.0 15.0 0.00 0.00 0.00 36 1013.0
20260505233003 76 171 6.0 15.0 0.00 0.00 0.00 36 1013.0
20260505232503 76 164 7.0 12.0 0.00 0.00 0.00 36 1012.8
20260505232003 76 168 6.0 24.0 0.00 0.00 0.00 36 1012.9
20260505231504 77 181 5.0 24.0 0.00 0.00 0.00 35 1013.0
20260505231002 77 176 5.0 15.0 0.00 0.00 0.00 36 1013.0
20260505230502 77 176 8.0 18.0 0.00 0.00 0.00 35 1013.0
20260505230004 77 163 10.0 22.0 0.00 0.00 0.00 35 1013.0
20260505225524 77 168 7.0 22.0 0.00 0.00 0.00 36 1012.9
20260505225003 77 166 7.0 14.0 0.00 0.00 0.00 35 1012.9
20260505224503 78 167 9.0 17.0 0.00 0.00 0.00 36 1012.9
20260505224004 78 162 9.0 20.0 0.00 0.00 0.00 36 1013.0
20260505223502 78 165 6.0 20.0 0.00 0.00 0.00 36 1013.1
20260505223002 77 161 5.0 18.0 0.00 0.00 0.00 36 1012.9
20260505222502 78 172 8.0 18.0 0.00 0.00 0.00 35 1012.9
20260505222003 78 188 6.0 18.0 0.00 0.00 0.00 35 1013.1
20260505221523 78 161 6.0 26.0 0.00 0.00 0.00 35 1013.1
20260505221003 78 170 13.0 26.0 0.00 0.00 0.00 34 1013.1
20260505220502 78 190 4.0 21.0 0.00 0.00 0.00 35 1013.1
20260505220003 78 191 6.0 21.0 0.00 0.00 0.00 35 1013.2
20260505215503 78 175 7.0 22.0 0.00 0.00 0.00 35 1013.2
20260505215004 78 163 10.0 22.0 0.00 0.00 0.00 35 1013.3
20260505214502 77 204 6.0 22.0 0.00 0.00 0.00 36 1013.3
20260505214003 78 201 7.0 22.0 0.00 0.00 0.00 35 1013.3
20260505213503 78 199 8.0 17.0 0.00 0.00 0.00 35 1013.5
20260505213003 79 223 7.0 16.0 0.00 0.00 0.00 34 1013.6
20260505212503 80 184 6.0 19.0 0.00 0.00 0.00 35 1013.4